Orbital Elements at Epoch 2459000.5 (2020-May-31.0) TDB
Reference: JPL 11 (heliocentric ecliptic J2000)
Element | Value | Uncertainty (1-sigma) | Units |
e | .1304103461142985 | 5.6432e-08 | |
a | 2.600243544864714 | 1.4314e-08 | au |
q | 2.261144884197436 | 1.4027e-07 | au |
i | 1.185610788527044 | 6.4202e-06 | deg |
node | 222.8576160706771 | 0.00019507 | deg |
peri | 305.7600977048642 | 0.00019657 | deg |
M | 48.52744586326387 | 2.4026e-05 | deg |
tp | 2458794.054985119832 (2019-Nov-06.55498512) | 0.00010158 | TDB |
period | 1531.508696465767 4.19 | 1.2646e-05 3.462e-08 | d yr |
n | .2350623282980795 | 1.9409e-09 | deg/d |
Q | 2.939342205531991 | 1.618e-08 | au |
|
| | Orbit Determination Parameters
Additional Information
|